Regional Weather Roundup
Issued by NWS

Home | Current Version | Previous Version | Text Only | Print | Product List | Glossary Off
Versions: 1 2 3 4 5 6 7 8 9 10 11 12 13 14 15 16 17 18 19 20 21 22 23 24 25 26 27 28 29 30 31 32 33 34 35 36 37 38 39 40 41 42 43 44 45 46 47 48 49 50

000
ASUS43 KFSD 210110
RWRSD

WEATHER ROUNDUP FOR SOUTH DAKOTA
NATIONAL WEATHER SERVICE SIOUX FALLS SD
800 PM CDT WED AUG 20 2014

NOTE: "FAIR" INDICATES FEW OR NO CLOUDS BELOW 12,000 FEET WITH NO
SIGNIFICANT WEATHER AND/OR OBSTRUCTIONS TO VISIBILITY.


SDZ001>005-009-010-012>017-210200-
NORTHWEST AND NORTH CENTRAL SOUTH DAKOTA

CITY           SKY/WX    TMP DP  RH WIND       PRES   REMARKS
BUFFALO          N/A     74  59  59 N12       29.74R
FAITH            N/A     75  64  68 NW20      29.73R
MOBRIDGE       MOCLDY    77  69  76 E15       29.65S
$$

SDZ012>016-024>037-041>051-057-063-072>074-210200-
SOUTHWEST AND SOUTH CENTRAL SOUTH DAKOTA

CITY           SKY/WX    TMP DP  RH WIND       PRES   REMARKS
RAPID CTY ARPT CLEAR     80  56  43 N14       29.76R
PIERRE         CLEAR     83  72  69 E14       29.63S
CUSTER         CLEAR     77  45  32 NW5       29.92R
ELLSWORTH AFB  CLEAR     83  56  39 N14       29.77R
PHILIP         PTCLDY    84  58  40 NW18      29.65R
PINE RIDGE     PTCLDY    85  59  41 W3        29.75R
WINNER         FAIR      85  69  58 SE10      29.68S
$$

SDZ004>011-016>023-039-040-210200-
NORTHEAST SOUTH DAKOTA

CITY           SKY/WX    TMP DP  RH WIND       PRES   REMARKS
ABERDEEN       CLOUDY    76  68  76 SE10      29.71F
WATERTOWN      CLOUDY    75  68  78 SE7       29.77S
SISSETON         N/A     76  68  76 SE9       29.76R
$$

SDZ017-020-022-023-036>040-048>070-210200-
SOUTHEAST SOUTH DAKOTA

CITY           SKY/WX    TMP DP  RH WIND       PRES   REMARKS
SIOUX FALLS    CLOUDY    73  69  87 E8        29.77S
HURON          MOCLDY    78  68  71 S13       29.70S
CHAMBERLAIN    CLEAR     79  73  80 SE9       29.68S
MITCHELL       MOCLDY    79  72  79 SE9       29.71F
YANKTON        CLOUDY    79  73  83 SE9       29.73R
$$

ABBREVIATIONS USED IN REMARKS
   TC - TEMPERATURE IN CELSIUS
  WCI - WIND CHILL INDEX
   HX - HEAT INDEX
  VSB - VISIBILITY




USA.gov is the U.S. government's official web portal to all federal, state and local government web resources and services.